Погода в Дашогузе

Погода в Дашогузе : погода сейчас, прогноз погоды и архив. Всё, что Вы хотите узнать о погоде в Дашогузе!

Поиск расширенной информации на нашем сайте:

Другие новости

Новости СМИ2

Главная страница сайта

Новости сайта

03.07.2017

Напоминаем, что на нашем специализированном сайте Метеоцентр.Азия вы можете получить высокодетализированные автоматические прогнозы погоды по пунктам России, СНГ и мира в авиационном формате (включающие направление и скорость ветра, видимость, явления погоды, количество и форму облачности, нижнюю и верхнюю границу облачности).


Погода в Дашогузе - сегодня

Время (UTC), дата Ветер
(°,м/с) 
Видим.   Явления Облачность Т
(°С)
Тd
(°С)
f(%) Тe
(°С)
Pmin
(гПа)
dP
(гПа)
Po
(мм)
O2
(г/м3)
Тmin Tmax R s Состояние
почвы
18 21.09.17 010 (С) 10 км    ясно 
+19.4 +5 39 +20  1012.9  0.2  752  282    +30.8       
21 21.09.17 010 (С) 10 км    ясно 
+16 +4.3 46 +16  1012.4  -0.6  752  286           
00 22.09.17 360 (С) 10 км    ясно 
+14.2 +3.4 48 +14  1012.2  -0.2  752  287           
03 22.09.17 010 (С) 10 км    ясно 
+13.6 +2.9 48 +14  1012.6  0.3  752  288  +12.4        сухая 
06 22.09.17 010 (С) 10 км    ясно 
+24.5 +7.7 34 +25  1012.1  -0.1  752  277  +12.4         
09 22.09.17 050 (СВ) 10 км    ясно 
+30.2 +8.2 25 +30  1010.9  -1  751  271           
12 22.09.17 360 (С) 10 км    ясно 
+31.1 +5.8 20 +31  1010.7  -0.2  751  271           
15 22.09.17 320 (СЗ) 10 км    ясно 
+25.3 +5 27 +25  1010.7  -0.2  751  276    +31.4       
18 22.09.17 010 (С) 10 км    ясно 
+19.3 +6.1 42 +20  1011.6  0.7  751  282    +31.4       
21 22.09.17 010 (С) 10 км    ясно 
+16.7 +4.5 44 +17  1011.8  0.1  751  285           
00 23.09.17 030 (СВ) 10 км    ясно 
+15.2 +4 47 +15  1012.2  0.4  752  286           
03 23.09.17 040 (СВ) 10 км    ясно 
+16.4 +4.8 46 +17  1013.8  1.6  753  285           
06 23.09.17 090 (В) 10 км    ясно 
+29.2 +8.8 28 +29  1014.6  1.2  754  273  +14.5         
09 23.09.17 090 (В) 10 км    ясно 
+31.6 +7.3 22 +32  1014.1  -0.5  753  271           
12 23.09.17 100 (В) 10 км    ясно 
+31.8 +6.1 20 +32  1014.8  0.7  754  271           
15 23.09.17 050 (СВ) 10 км    ясно 
+25.4 +4.8 27 +25  1015.6  0.7  755  277    +32.6       
18 23.09.17 060 (СВ) 10 км    ясно 
+23 +3 27 +23  1016.8  1.1  755  280    +32.6       
21 23.09.17 070 (В) 10 км    ясно 
+20 +4 35 +20  1017.4  0.5  756  283           
00 24.09.17 070 (В) 10 км    ясно 
+17.2 +3.8 41 +17  1018.3  0.8  756  286           
03 24.09.17 090 (В) 10 км    ясно 
+16.8 +0.9 34 +16  1018.9  0.6  757  287           
06 24.09.17 090 (В) 10 км    ясно 
+22.2 +4 30 +22  1019.9  1.1  758  282  +16.2         
09 24.09.17 080 (В) 10 км    ясно 
+26.4 +2.1 21 +26  1019.5  -0.2  757  278           
12 24.09.17 080 (В) 10 км    ясно 
+26.2 +2.3 21 +26  1019.3  -0.2  757  278           
15 24.09.17 070 (В) 10 км    ясно 
+21.9 +1.7 26 +22  1020.2  0.7  758  282    +27.2       
18 24.09.17 080 (В) 10 км    3/0 средняя 
[Ac lent]
+18 -3.8 22 +18  1020.5  0.2  758  287    +27.2       
Время (UTC), дата Ветер
(°,м/с) 
Видим.   Явления Облачность Т
(°С)
Тd
(°С)
f(%) Тe
(°С)
Pmin
(гПа)
dP
(гПа)
Po
(мм)
O2
(г/м3)
Тmin Tmax R s Состояние
почвы

Для получения пояснительной информации подведите курсор к названию столбца.

ПОГОДА в Дашогузе - архив

Всё, что Вы хотите узнать о погоде в Дашогузе - удобно и подробно!

Выберите нужную дату (начиная с 1 января 2015* года) и нажмите кнопку "Найти".
Будут отображены архивные сводки погоды по пункту Дашогуз, начиная с указанной даты.


Отображать данные в формате CSV (для использования в таблицах Excel)


Внимание! Наш архив погоды предназначен исключительно для личного некоммерческого использования в познавательных целях. Если Вам необходимы официальные справки о состоянии погоды (для производственных, юридических, коммерческих и т.п. целей), обращайтесь в органы Росгидромета.

*Примечание: данная дата относится к архиву по метеостанциям СССР (Россия, СНГ, Балтия).
Архив по метеостанциям Зарубежной Европы и Азии (кроме Китая) хранится 10 дней, по другим регионам земного шара (Китай, Африка, Америка, Австралия, Океания) - 1 день.

Дашогуз - район местоположения метеостанции


Название, широта, долгота, высота метеостанции:
Дашогуз (Ташауз) 41.8°ш. 59.8°д. 82 м над ур. моря [Туркменистан]

Дополнительная информация

В oтличие oт бoльшинства пoгoдных сайтoв мы публикуем пoдрoбную метеoинфoрмацию в детальнoм прoфессиoнальнoм фoрмате.

Характеристики температуры и влажнoсти вoздуха измеряются на высoте 2 м в тени вдали oт зданий и деревьев.
Скoрoсть ветра измеряется на высoте 10 м (на урoвне рoста челoвека скoрoсть ветра ниже в 1.5-2 раза). Если метеoстанция нахoдится в гoрoде или в лесу, тo скoрoсть ветра занижена на 2-4 м/с пo сравнению с oткрытым местoм. Скoрoсть ветра над акватoриями крупных рек и oзёр, а также на вершинах хoлмoв на 2-5 м/с выше, чем в oбычных услoвиях.
Атмoсфернoе давление в разных тoчках местнoсти мoжет значительнo oтличаться oт давления на метеoстанции, в зависимoсти oт услoвий рельефа (при пoдъёме на 10 м давление пoнижается примернo на 1 мм рт.ст.).